Regional Weather Roundup
Issued by NWS

Home | Current Version | Previous Version | Graphics & Text | Print | Product List | Glossary On
Versions: 1 2 3 4 5 6 7 8 9 10 11 12 13 14 15 16 17 18 19 20 21 22 23 24 25 26 27 28 29 30 31 32 33 34 35 36 37 38 39 40 41 42 43 44 45 46 47 48 49 50
000
ASUS43 KLOT 211108
RWRIL

ILLINOIS REGIONAL WEATHER ROUNDUP
NATIONAL WEATHER SERVICE CHICAGO/ROMEOVILLE IL
600 AM CDT TUE APR 21 2015

NOTE: "FAIR" INDICATES FEW OR NO CLOUDS BELOW 12,000 FEET WITH NO
SIGNIFICANT WEATHER AND/OR OBSTRUCTIONS TO VISIBILITY.

* THESE STATIONS ARE NOT UNDER NWS QUALITY CONTROL. THEY ALSO MAY NOT
  REPORT WEATHER SUCH AS PRECIPITATION OR FOG.

ILZ001-002-007-009-015-016-024-211200-
NORTHWEST ILLINOIS

CITY           SKY/WX    TMP DP  RH WIND       PRES   REMARKS
MOLINE         CLEAR     40  29  64 W15       29.68S
STERLING*      CLEAR     39  28  65 W20       29.65R WCI  30
SAVANNA*       PTCLDY    40  31  70 W12G22    29.63S
$$

ILZ003-004-008-010-011-017-018-211200-
NORTH CENTRAL ILLINOIS

CITY           SKY/WX    TMP DP  RH WIND       PRES   REMARKS
ROCKFORD       MOCLDY    40  29  64 W14       29.61S
FREEPORT*      CLOUDY    37  30  74 W14       29.60S WCI  29
ROCHELLE*      CLEAR     33  31  90 SW12      29.62S WCI  24
DE KALB*       PTCLDY    35  29  79 W14G24    29.61S WCI  26
PERU*          CLEAR     40  31  70 SW13      29.67R
$$

ILZ005-006-012>014-019>023-211200-
NORTHEAST ILLINOIS

CITY           SKY/WX    TMP DP  RH WIND       PRES   REMARKS
CHICAGO-OHARE  PTCLDY    39  29  67 W21G28    29.59R WCI  29
CHICAGO-MIDWAY PTCLDY    42  30  62 W16G26    29.62R
AURORA         CLEAR     38  29  70 SW12      29.62S WCI  30
LANSING*       CLEAR     39  29  67 SW13      29.64R WCI  32
JOLIET*        CLEAR     40  32  72 SW8       29.65R
WAUKEGAN       CLEAR     37  30  75 VRB7G22   29.54S WCI  32
DUPAGE AIRPORT PTCLDY    39  29  67 W14G23    29.60S WCI  31
KANKAKEE*      PTCLDY    37  32  82 SW10      29.68S WCI  30
WHEELING       CLEAR     39  28  64 W10G23    29.59R WCI  32
MORRIS*        CLEAR     37  31  76 SW7       29.62F WCI  32
ROMEOVILLE*    CLEAR     38  30  72 W14G21    29.63S WCI  30
NORTHERLY ISL    N/A     42  30  62 SW10        N/A
$$

LMZ740>746-211200-
SOUTHERN LAKE MICHIGAN

STATION/POSITION SKY/WX   TEMP    WIND        PRES    VSBY  WAVE
                          AIR SEA DIR/SP/G                  HT/PER
                          (F)     (DEG/KT/KT) (MB)    (MI)  (FT/S)
HARRISON CRIB              42     240/ 23/ 33   N/A
BURNHAM HARBOR             42     260/ 12/ 14   N/A
CALUMET HARBOR             42     230/ 12/ 19   N/A
BURNS HARBOR               43     230/ 13/ 18 1003.7R
MICHIGAN CITY              43     200/ 20/ 24   N/A
MICHIGAN CITY 6N           44 45  250/ 17/ 23   N/A           4/ 4
$$

ILZ025>027-034>036-040-047-049-050-058-095>099-211200-
WEST-CENTRAL ILLINOIS

CITY           SKY/WX    TMP DP  RH WIND       PRES   REMARKS
QUINCY         PTCLDY    39  28  64 SW8       29.77R WCI  33
GALESBURG*     CLEAR     36  28  71 SW7       29.71S WCI  31
MACOMB*        CLEAR     36  30  78 W9        29.76R WCI  29
JACKSONVILLE*  PTCLDY    42  32  68 SW8       29.77S
PITTSFIELD*    PTCLDY    44  31  60 SW9       29.79R
$$

ILZ028>032-037-038-041>044-048-051>054-059>061-211200-
CENTRAL ILLINOIS

CITY           SKY/WX    TMP DP  RH WIND       PRES   REMARKS
PONTIAC        CLEAR     39  33  78 SW13      29.70S WCI  32
BLOOMINGTON    CLEAR     37  32  82 SW10      29.72S WCI  30
DECATUR        CLEAR     40  32  73 SW10      29.75S
PEORIA         CLEAR     39  28  64 W8        29.72S WCI  33
LACON*         CLEAR     40  31  69 SW8       29.69S
LINCOLN*       CLEAR     40  32  72 SW3       29.73S
SPRINGFIELD    CLEAR     40  31  70 SW10      29.76S
TAYLORVILLE    CLEAR     41  32  70 SW13      29.77S
$$

ILZ033-039-045-046-055>057-062-063-211200-
EAST-CENTRAL ILLINOIS

CITY           SKY/WX    TMP DP  RH WIND       PRES   REMARKS
CHAMPAIGN      CLEAR     38  32  79 SW13      29.73S WCI  30
DANVILLE*      CLEAR     39  32  76 W9        29.70S WCI  33
RANTOUL*       CLEAR     40  33  74 W9        29.72S
MATTOON        FAIR      43  31  62 SW9       29.76S
PARIS*         CLEAR     40  34  79 SW12      29.77R
$$

ILZ079-100>102-211200-
SOUTHWEST ILLINOIS

CITY           SKY/WX    TMP DP  RH WIND       PRES   REMARKS
ALTON          PTCLDY    44  28  53 SW8       29.83R
BELLEVILLE     FAIR      42  33  69 SW7       29.83R
CAHOKIA*       CLEAR     46  30  53 SW6       29.83S
SPARTA*        PTCLDY    45  31  58 SW6       29.87R
$$

ILZ064>066-069>071-074>076-080>082-084>086-088>090-092>094-211200-
SOUTH-CENTRAL ILLINOIS

CITY           SKY/WX    TMP DP  RH WIND       PRES   REMARKS
CARBONDALE     CLEAR     43  31  62 SW8       29.88R
CAIRO*         CLEAR     47  37  66 SW7       29.92R
EFFINGHAM*     CLEAR     43  31  62 S9        29.81S
MARION         CLEAR     48  34  57 SW6       29.89R
MT. VERNON     CLEAR     43  30  61 SW9       29.85S
CENTRALIA*     CLEAR     43  31  63 SW10      29.83S
SALEM*         MOCLDY    47  32  55 SW10      29.83S
METROPOLIS*    CLEAR     45  38  76 SW5       29.91R
$$

ILZ067-068-072-073-078-083-087-091-211200-
SOUTHEAST ILLINOIS

CITY           SKY/WX    TMP DP  RH WIND       PRES   REMARKS
LAWRENCEVILLE  CLEAR     45  33  63 SW14      29.82S
FLORA*         CLEAR     45  32  61 SW12      29.83S
FAIRFIELD*     PTCLDY    45  34  65 SW7       29.84R
HARRISBURG*    CLEAR     42  34  73 SW3       29.89R
ROBINSON*      CLEAR     46  32  60 SW16      29.81S
CARMI*         CLEAR     45  32  60 SW9       29.86R
$$

ABBREVIATIONS USED IN REMARKS
   TC - TEMPERATURE IN CELSIUS
  WCI - WIND CHILL INDEX
   HX - HEAT INDEX
  VSB - VISIBILITY
$$



USA.gov is the U.S. government's official web portal to all federal, state and local government web resources and services.